Time,TemperatureF,DewpointF,PressureIn,WindDirection,WindDirectionDegrees,WindSpeedMPH,WindSpeedGustMPH,Humidity,HourlyPrecipIn,Conditions,Clouds,dailyrainin,SoftwareType,DateUTC
2013-01-14 00:02:00,60.8,54.9,30.00,WSW,247,6.0,8.0,81,0.00,,---,0.00,VWS V14.00,2013-01-14 05:02:00,
2013-01-14 00:03:00,60.8,54.9,30.00,WSW,247,5.0,8.0,81,0.00,,---,0.00,VWS V14.00,2013-01-14 05:03:00,
2013-01-14 00:04:00,60.8,54.9,30.00,WSW,247,2.0,8.0,81,0.00,,---,0.00,VWS V14.00,2013-01-14 05:04:00,
2013-01-14 00:06:00,60.9,55.0,30.01,WSW,246,5.0,8.0,81,0.00,,---,0.00,VWS V14.00,2013-01-14 05:06:00,
2013-01-14 00:11:00,60.8,54.9,30.01,WSW,246,1.0,8.0,81,0.00,,---,0.00,VWS V14.00,2013-01-14 05:11:00,
2013-01-14 00:16:00,61.0,55.1,30.00,WSW,246,4.0,8.0,81,0.00,,---,0.00,VWS V14.00,2013-01-14 05:16:00,
2013-01-14 00:21:00,61.2,55.0,30.01,WSW,246,2.0,8.0,80,0.00,,---,0.00,VWS V14.00,2013-01-14 05:21:00,
2013-01-14 00:26:00,61.2,55.3,30.01,WSW,246,1.0,8.0,81,0.00,,---,0.00,VWS V14.00,2013-01-14 05:26:00,
2013-01-14 00:31:00,61.1,55.2,30.01,WSW,246,0.0,2.0,81,0.00,,---,0.00,VWS V14.00,2013-01-14 05:31:00,
2013-01-14 00:37:00,61.2,55.3,30.01,WSW,244,2.0,8.0,81,0.00,,---,0.00,VWS V14.00,2013-01-14 05:37:00,
2013-01-14 00:42:00,61.1,55.2,30.02,WSW,244,1.0,8.0,81,0.00,,---,0.00,VWS V14.00,2013-01-14 05:42:00,
2013-01-14 00:47:00,61.3,55.4,30.01,WSW,244,1.0,8.0,81,0.00,,---,0.00,VWS V14.00,2013-01-14 05:47:00,
2013-01-14 00:52:00,60.9,55.4,30.01,WSW,245,2.0,8.0,82,0.00,,---,0.00,VWS V14.00,2013-01-14 05:52:00,
2013-01-14 00:57:00,60.6,55.4,30.02,WSW,245,0.0,8.0,83,0.00,,---,0.00,VWS V14.00,2013-01-14 05:57:00,
2013-01-14 01:02:00,60.4,55.2,30.02,WSW,245,0.0,0.0,83,0.00,,---,0.00,VWS V14.00,2013-01-14 06:02:00,
2013-01-14 01:07:00,60.2,55.3,30.02,WSW,245,0.0,0.0,84,0.00,,---,0.00,VWS V14.00,2013-01-14 06:07:00,
2013-01-14 01:12:00,59.9,55.1,30.03,WSW,245,0.0,0.0,84,0.00,,---,0.00,VWS V14.00,2013-01-14 06:12:00,
2013-01-14 01:17:00,59.7,55.5,30.03,WSW,245,0.0,4.0,86,0.01,,---,0.01,VWS V14.00,2013-01-14 06:17:00,
2013-01-14 01:22:00,59.5,55.6,30.02,WSW,244,0.0,4.0,87,0.01,,---,0.01,VWS V14.00,2013-01-14 06:22:00,
2013-01-14 01:28:00,59.0,55.5,30.02,WSW,244,0.0,4.0,88,0.01,,---,0.01,VWS V14.00,2013-01-14 06:28:00,
2013-01-14 01:33:00,58.5,55.3,30.02,WSW,244,0.0,2.0,89,0.01,,---,0.01,VWS V14.00,2013-01-14 06:33:00,
2013-01-14 01:38:00,58.1,55.2,30.02,WSW,244,0.0,2.0,90,0.01,,---,0.01,VWS V14.00,2013-01-14 06:38:00,
2013-01-14 01:43:00,57.8,54.9,30.02,WSW,244,0.0,2.0,90,0.01,,---,0.01,VWS V14.00,2013-01-14 06:43:00,
2013-01-14 01:48:00,57.6,54.7,30.02,WSW,244,0.0,2.0,90,0.01,,---,0.01,VWS V14.00,2013-01-14 06:48:00,
2013-01-14 01:53:00,57.3,54.7,30.02,WSW,244,0.0,2.0,91,0.01,,---,0.01,VWS V14.00,2013-01-14 06:53:00,
2013-01-14 01:58:00,57.0,54.4,30.02,WSW,244,0.0,2.0,91,0.01,,---,0.01,VWS V14.00,2013-01-14 06:58:00,
2013-01-14 02:04:00,56.9,54.6,30.02,WSW,244,0.0,1.0,92,0.01,,---,0.01,VWS V14.00,2013-01-14 07:04:00,
2013-01-14 02:09:00,56.6,54.3,30.03,WSW,244,0.0,1.0,92,0.01,,---,0.01,VWS V14.00,2013-01-14 07:09:00,
2013-01-14 02:14:00,56.5,54.5,30.03,WSW,244,0.0,1.0,93,0.01,,---,0.01,VWS V14.00,2013-01-14 07:14:00,
2013-01-14 02:19:00,56.4,54.4,30.02,WSW,244,0.0,1.0,93,0.01,,---,0.01,VWS V14.00,2013-01-14 07:19:00,
2013-01-14 02:24:00,56.3,54.3,30.02,WSW,244,0.0,1.0,93,0.01,,---,0.01,VWS V14.00,2013-01-14 07:24:00,
2013-01-14 02:29:00,56.2,54.2,30.03,WSW,244,0.0,1.0,93,0.01,,---,0.01,VWS V14.00,2013-01-14 07:29:00,
2013-01-14 02:34:00,56.2,54.2,30.03,WSW,244,0.0,0.0,93,0.00,,---,0.01,VWS V14.00,2013-01-14 07:34:00,
2013-01-14 02:39:00,56.2,54.2,30.03,WSW,244,0.0,0.0,93,0.00,,---,0.01,VWS V14.00,2013-01-14 07:39:00,
2013-01-14 02:45:00,55.9,53.9,30.03,WSW,244,2.0,2.0,93,0.00,,---,0.01,VWS V14.00,2013-01-14 07:45:00,
2013-01-14 02:50:00,55.9,54.2,30.03,WSW,244,3.0,3.0,94,0.00,,---,0.01,VWS V14.00,2013-01-14 07:50:00,
2013-01-14 02:55:00,55.8,54.4,30.03,WSW,244,0.0,3.0,95,0.00,,---,0.01,VWS V14.00,2013-01-14 07:55:00,
2013-01-14 03:00:00,55.8,54.4,30.01,WSW,244,0.0,3.0,95,0.00,,---,0.01,VWS V14.00,2013-01-14 08:00:00,
2013-01-14 03:05:00,55.9,54.5,30.01,WSW,244,0.0,2.0,95,0.00,,---,0.01,VWS V14.00,2013-01-14 08:05:00,
2013-01-14 03:10:00,56.0,54.6,30.00,WSW,244,0.0,2.0,95,0.01,,---,0.02,VWS V14.00,2013-01-14 08:10:00,
2013-01-14 03:15:00,56.0,54.6,29.99,WSW,244,0.0,2.0,95,0.01,,---,0.02,VWS V14.00,2013-01-14 08:15:00,
2013-01-14 03:20:00,56.1,54.7,30.00,WSW,244,0.0,2.0,95,0.01,,---,0.02,VWS V14.00,2013-01-14 08:20:00,
2013-01-14 03:25:00,56.0,54.6,29.99,WSW,244,0.0,2.0,95,0.01,,---,0.02,VWS V14.00,2013-01-14 08:25:00,
2013-01-14 03:30:00,55.8,54.1,29.99,WSW,244,0.0,2.0,94,0.01,,---,0.02,VWS V14.00,2013-01-14 08:30:00,
2013-01-14 03:36:00,55.5,53.8,30.00,WSW,244,0.0,0.0,94,0.01,,---,0.02,VWS V14.00,2013-01-14 08:36:00,
2013-01-14 03:41:00,55.4,54.0,30.00,WSW,244,0.0,1.0,95,0.02,,---,0.03,VWS V14.00,2013-01-14 08:41:00,
2013-01-14 03:46:00,55.3,53.9,30.00,WSW,244,0.0,1.0,95,0.02,,---,0.03,VWS V14.00,2013-01-14 08:46:00,
2013-01-14 03:51:00,54.9,53.5,30.00,WSW,244,2.0,2.0,95,0.02,,---,0.03,VWS V14.00,2013-01-14 08:51:00,
2013-01-14 03:56:00,54.9,53.5,30.00,WSW,244,0.0,2.0,95,0.02,,---,0.03,VWS V14.00,2013-01-14 08:56:00,
2013-01-14 04:01:00,55.0,53.9,29.99,WSW,244,0.0,0.0,96,0.03,,---,0.04,VWS V14.00,2013-01-14 09:01:00,
2013-01-14 04:06:00,55.1,54.0,30.00,WSW,244,0.0,0.0,96,0.03,,---,0.04,VWS V14.00,2013-01-14 09:06:00,
2013-01-14 04:11:00,55.3,54.2,29.99,WSW,244,0.0,2.0,96,0.03,,---,0.04,VWS V14.00,2013-01-14 09:11:00,
2013-01-14 04:16:00,55.4,54.3,30.00,WSW,244,0.0,2.0,96,0.03,,---,0.04,VWS V14.00,2013-01-14 09:16:00,
2013-01-14 04:21:00,55.6,54.8,30.00,WSW,244,0.0,2.0,97,0.03,,---,0.04,VWS V14.00,2013-01-14 09:21:00,
2013-01-14 04:27:00,55.9,55.1,30.00,WSW,244,0.0,3.0,97,0.03,,---,0.04,VWS V14.00,2013-01-14 09:27:00,
2013-01-14 04:32:00,55.9,55.1,30.00,WSW,244,0.0,1.0,97,0.03,,---,0.05,VWS V14.00,2013-01-14 09:32:00,
2013-01-14 04:37:00,56.1,55.3,30.00,WSW,244,0.0,2.0,97,0.03,,---,0.05,VWS V14.00,2013-01-14 09:37:00,
2013-01-14 04:42:00,56.1,55.3,30.00,WSW,244,0.0,4.0,97,0.03,,---,0.05,VWS V14.00,2013-01-14 09:42:00,
2013-01-14 04:47:00,56.0,54.9,30.00,WSW,244,0.0,4.0,96,0.03,,---,0.05,VWS V14.00,2013-01-14 09:47:00,
2013-01-14 04:52:00,55.9,54.8,29.99,WSW,244,0.0,4.0,96,0.03,,---,0.05,VWS V14.00,2013-01-14 09:52:00,
2013-01-14 04:57:00,55.7,54.6,30.00,WSW,244,0.0,4.0,96,0.03,,---,0.05,VWS V14.00,2013-01-14 09:57:00,
2013-01-14 05:02:00,55.7,54.9,30.00,WSW,244,0.0,0.0,97,0.01,,---,0.05,VWS V14.00,2013-01-14 10:02:00,
2013-01-14 05:07:00,55.8,55.0,30.00,WSW,244,0.0,0.0,97,0.02,,---,0.06,VWS V14.00,2013-01-14 10:07:00,
2013-01-14 05:12:00,55.7,54.9,30.00,WSW,244,0.0,1.0,97,0.02,,---,0.06,VWS V14.00,2013-01-14 10:12:00,
2013-01-14 05:18:00,55.7,54.9,30.00,WSW,244,0.0,1.0,97,0.02,,---,0.06,VWS V14.00,2013-01-14 10:18:00,
2013-01-14 05:23:00,55.6,54.8,30.01,WSW,244,0.0,1.0,97,0.02,,---,0.06,VWS V14.00,2013-01-14 10:23:00,
2013-01-14 05:28:00,55.7,54.9,30.01,WSW,244,2.0,3.0,97,0.03,,---,0.07,VWS V14.00,2013-01-14 10:28:00,
2013-01-14 05:33:00,55.8,55.0,30.01,WSW,244,0.0,2.0,97,0.03,,---,0.08,VWS V14.00,2013-01-14 10:33:00,
2013-01-14 05:38:00,55.8,55.0,30.01,WSW,244,0.0,2.0,97,0.04,,---,0.09,VWS V14.00,2013-01-14 10:38:00,
2013-01-14 05:43:00,55.8,55.0,30.01,WSW,244,0.0,2.0,97,0.05,,---,0.10,VWS V14.00,2013-01-14 10:43:00,
2013-01-14 05:48:00,55.8,55.0,30.01,WSW,244,0.0,2.0,97,0.06,,---,0.11,VWS V14.00,2013-01-14 10:48:00,
2013-01-14 05:53:00,55.8,55.0,30.01,WSW,244,0.0,2.0,97,0.07,,---,0.12,VWS V14.00,2013-01-14 10:53:00,
2013-01-14 05:58:00,55.8,55.0,30.01,WSW,244,0.0,2.0,97,0.08,,---,0.13,VWS V14.00,2013-01-14 10:58:00,
2013-01-14 06:03:00,55.7,54.9,30.01,WSW,244,0.0,0.0,97,0.08,,---,0.13,VWS V14.00,2013-01-14 11:03:00,
2013-01-14 06:09:00,55.7,54.9,30.02,WSW,244,0.0,0.0,97,0.08,,---,0.13,VWS V14.00,2013-01-14 11:09:00,
2013-01-14 06:14:00,55.6,54.8,30.02,WSW,244,0.0,0.0,97,0.09,,---,0.14,VWS V14.00,2013-01-14 11:14:00,
2013-01-14 06:19:00,55.5,54.7,30.02,WSW,244,0.0,0.0,97,0.09,,---,0.14,VWS V14.00,2013-01-14 11:19:00,
2013-01-14 06:24:00,55.5,54.7,30.02,WSW,244,0.0,0.0,97,0.10,,---,0.15,VWS V14.00,2013-01-14 11:24:00,
2013-01-14 06:29:00,55.5,54.7,30.03,WSW,244,0.0,0.0,97,0.10,,---,0.15,VWS V14.00,2013-01-14 11:29:00,
2013-01-14 06:34:00,55.7,54.9,30.03,WSW,244,2.0,3.0,97,0.09,,---,0.16,VWS V14.00,2013-01-14 11:34:00,
2013-01-14 06:39:00,55.8,55.0,30.03,WSW,244,2.0,3.0,97,0.10,,---,0.17,VWS V14.00,2013-01-14 11:39:00,
2013-01-14 06:44:00,55.9,55.1,30.03,WSW,244,2.0,3.0,97,0.11,,---,0.18,VWS V14.00,2013-01-14 11:44:00,
2013-01-14 06:49:00,55.8,55.0,30.03,WSW,244,0.0,3.0,97,0.12,,---,0.19,VWS V14.00,2013-01-14 11:49:00,
2013-01-14 06:54:00,55.8,55.0,30.04,WSW,244,0.0,3.0,97,0.12,,---,0.19,VWS V14.00,2013-01-14 11:54:00,
2013-01-14 06:59:00,55.8,55.0,30.03,WSW,244,1.0,3.0,97,0.12,,---,0.19,VWS V14.00,2013-01-14 11:59:00,
2013-01-14 07:05:00,55.7,54.9,30.03,WSW,244,2.0,3.0,97,0.06,,---,0.19,VWS V14.00,2013-01-14 12:05:00,
2013-01-14 07:10:00,55.7,54.9,30.04,WSW,252,7.0,9.0,97,0.06,,---,0.19,VWS V14.00,2013-01-14 12:10:00,
2013-01-14 07:15:00,54.3,53.5,30.03,WSW,239,8.0,11.0,97,0.06,,---,0.19,VWS V14.00,2013-01-14 12:15:00,
2013-01-14 07:20:00,53.7,52.9,30.04,WSW,242,6.0,11.0,97,0.06,,---,0.19,VWS V14.00,2013-01-14 12:20:00,
2013-01-14 07:25:00,53.3,52.2,30.05,WSW,242,4.0,11.0,96,0.07,,---,0.20,VWS V14.00,2013-01-14 12:25:00,
2013-01-14 07:30:00,52.6,51.2,30.05,WSW,240,3.0,11.0,95,0.07,,---,0.20,VWS V14.00,2013-01-14 12:30:00,
2013-01-14 07:35:00,52.3,50.9,30.06,WSW,240,5.0,7.0,95,0.04,,---,0.20,VWS V14.00,2013-01-14 12:35:00,
2013-01-14 07:40:00,51.8,50.1,30.06,WSW,240,1.0,7.0,94,0.04,,---,0.20,VWS V14.00,2013-01-14 12:40:00,
2013-01-14 07:45:00,51.3,49.6,30.05,WSW,240,4.0,7.0,94,0.04,,---,0.20,VWS V14.00,2013-01-14 12:45:00,
2013-01-14 07:51:00,50.7,49.0,30.06,WSW,240,3.0,7.0,94,0.04,,---,0.20,VWS V14.00,2013-01-14 12:51:00,
2013-01-14 07:56:00,50.5,49.1,30.06,WSW,240,3.0,7.0,95,0.04,,---,0.20,VWS V14.00,2013-01-14 12:56:00,
2013-01-14 08:01:00,50.3,48.9,30.06,WSW,240,3.0,7.0,95,0.04,,---,0.20,VWS V14.00,2013-01-14 13:01:00,
2013-01-14 08:06:00,50.1,48.4,30.07,WSW,240,4.0,6.0,94,0.01,,---,0.20,VWS V14.00,2013-01-14 13:06:00,
2013-01-14 08:11:00,50.0,48.3,30.07,WSW,240,3.0,6.0,94,0.01,,---,0.20,VWS V14.00,2013-01-14 13:11:00,
2013-01-14 08:16:00,49.7,48.0,30.08,WSW,239,5.0,6.0,94,0.01,,---,0.20,VWS V14.00,2013-01-14 13:16:00,
2013-01-14 08:21:00,49.6,48.0,30.08,WSW,239,3.0,6.0,94,0.01,,---,0.20,VWS V14.00,2013-01-14 13:21:00,
2013-01-14 08:26:00,49.3,47.4,30.08,WSW,238,3.0,7.0,93,0.01,,---,0.20,VWS V14.00,2013-01-14 13:26:00,
2013-01-14 08:31:00,49.2,47.5,30.09,WSW,238,6.0,6.0,94,0.00,,---,0.20,VWS V14.00,2013-01-14 13:31:00,
2013-01-14 08:36:00,49.0,47.3,30.09,WSW,238,4.0,6.0,94,0.00,,---,0.20,VWS V14.00,2013-01-14 13:36:00,
2013-01-14 08:42:00,48.7,47.0,30.10,SW,236,3.0,7.0,94,0.00,,---,0.20,VWS V14.00,2013-01-14 13:42:00,
2013-01-14 08:47:00,48.5,46.9,30.10,SW,236,4.0,7.0,94,0.00,,---,0.20,VWS V14.00,2013-01-14 13:47:00,
2013-01-14 08:52:00,48.3,46.7,30.10,SW,236,3.0,7.0,94,0.00,,---,0.20,VWS V14.00,2013-01-14 13:52:00,
2013-01-14 08:57:00,48.1,46.5,30.10,WSW,238,4.0,7.0,94,0.00,,---,0.20,VWS V14.00,2013-01-14 13:57:00,
2013-01-14 09:02:00,47.9,46.3,30.10,WSW,238,3.0,6.0,94,0.00,,---,0.20,VWS V14.00,2013-01-14 14:02:00,
2013-01-14 09:07:00,47.9,46.3,30.10,WSW,238,1.0,6.0,94,0.00,,---,0.20,VWS V14.00,2013-01-14 14:07:00,
2013-01-14 09:12:00,47.8,46.2,30.11,WSW,238,2.0,6.0,94,0.00,,---,0.20,VWS V14.00,2013-01-14 14:12:00,
2013-01-14 09:17:00,47.8,46.2,30.11,WSW,238,4.0,6.0,94,0.00,,---,0.20,VWS V14.00,2013-01-14 14:17:00,
2013-01-14 09:22:00,47.8,46.4,30.12,WSW,238,2.0,6.0,95,0.00,,---,0.20,VWS V14.00,2013-01-14 14:22:00,
2013-01-14 09:27:00,47.7,46.1,30.12,WSW,240,2.0,6.0,94,0.00,,---,0.20,VWS V14.00,2013-01-14 14:27:00,
2013-01-14 09:32:00,47.3,45.4,30.12,WSW,240,5.0,8.0,93,0.01,,---,0.21,VWS V14.00,2013-01-14 14:32:00,
2013-01-14 09:37:00,47.0,45.1,30.12,WSW,240,3.0,8.0,93,0.01,,---,0.21,VWS V14.00,2013-01-14 14:37:00,
2013-01-14 09:42:00,46.9,45.3,30.13,WSW,240,2.0,8.0,94,0.01,,---,0.21,VWS V14.00,2013-01-14 14:42:00,
2013-01-14 09:48:00,46.8,44.9,30.11,WSW,240,2.0,8.0,93,0.01,,---,0.21,VWS V14.00,2013-01-14 14:48:00,
2013-01-14 09:53:00,46.6,44.7,30.10,WSW,240,0.0,8.0,93,0.02,,---,0.22,VWS V14.00,2013-01-14 14:53:00,
2013-01-14 09:58:00,46.7,45.1,30.10,WSW,240,2.0,8.0,94,0.02,,---,0.22,VWS V14.00,2013-01-14 14:58:00,
2013-01-14 10:03:00,46.5,44.9,30.12,WSW,240,2.0,3.0,94,0.03,,---,0.23,VWS V14.00,2013-01-14 15:03:00,
2013-01-14 10:08:00,46.4,44.8,30.12,WSW,240,0.0,4.0,94,0.03,,---,0.23,VWS V14.00,2013-01-14 15:08:00,
2013-01-14 10:13:00,46.6,45.2,30.12,WSW,240,3.0,4.0,95,0.03,,---,0.23,VWS V14.00,2013-01-14 15:13:00,
2013-01-14 10:18:00,46.6,45.2,30.12,WSW,240,1.0,4.0,95,0.03,,---,0.23,VWS V14.00,2013-01-14 15:18:00,
2013-01-14 10:23:00,46.5,45.2,30.12,WSW,240,2.0,4.0,95,0.03,,---,0.23,VWS V14.00,2013-01-14 15:23:00,
2013-01-14 10:28:00,46.4,45.0,30.13,WSW,240,0.0,4.0,95,0.03,,---,0.23,VWS V14.00,2013-01-14 15:28:00,
2013-01-14 10:33:00,46.5,45.2,30.13,WSW,240,0.0,3.0,95,0.02,,---,0.23,VWS V14.00,2013-01-14 15:33:00,
2013-01-14 10:38:00,46.2,44.8,30.12,WSW,240,2.0,4.0,95,0.02,,---,0.23,VWS V14.00,2013-01-14 15:38:00,
2013-01-14 10:43:00,46.1,44.8,30.13,WSW,240,2.0,4.0,95,0.02,,---,0.23,VWS V14.00,2013-01-14 15:43:00,
2013-01-14 10:48:00,46.0,44.7,30.12,WSW,240,3.0,4.0,95,0.02,,---,0.23,VWS V14.00,2013-01-14 15:48:00,
2013-01-14 10:53:00,45.9,44.5,30.12,WSW,240,1.0,5.0,95,0.02,,---,0.23,VWS V14.00,2013-01-14 15:53:00,
2013-01-14 10:58:00,45.8,44.5,30.12,WSW,240,2.0,5.0,95,0.02,,---,0.23,VWS V14.00,2013-01-14 15:58:00,
2013-01-14 11:03:00,45.8,44.5,30.12,WSW,240,2.0,3.0,95,0.01,,---,0.23,VWS V14.00,2013-01-14 16:03:00,
2013-01-14 11:08:00,45.8,44.5,30.12,WSW,240,2.0,4.0,95,0.01,,---,0.23,VWS V14.00,2013-01-14 16:08:00,
2013-01-14 11:13:00,45.9,44.5,30.13,WSW,240,1.0,4.0,95,0.01,,---,0.23,VWS V14.00,2013-01-14 16:13:00,
2013-01-14 11:19:00,45.9,44.8,30.12,WSW,240,3.0,4.0,96,0.01,,---,0.23,VWS V14.00,2013-01-14 16:19:00,
2013-01-14 11:24:00,46.0,44.9,30.12,WSW,240,3.0,4.0,96,0.01,,---,0.23,VWS V14.00,2013-01-14 16:24:00,
2013-01-14 11:29:00,46.0,44.7,30.11,WSW,240,2.0,5.0,95,0.01,,---,0.23,VWS V14.00,2013-01-14 16:29:00,
2013-01-14 11:34:00,46.0,44.7,30.11,WSW,240,3.0,4.0,95,0.00,,---,0.23,VWS V14.00,2013-01-14 16:34:00,
2013-01-14 11:39:00,45.8,44.5,30.11,WSW,238,4.0,6.0,95,0.00,,---,0.23,VWS V14.00,2013-01-14 16:39:00,
2013-01-14 11:44:00,45.8,44.7,30.11,WSW,238,4.0,6.0,96,0.00,,---,0.23,VWS V14.00,2013-01-14 16:44:00,
2013-01-14 11:49:00,45.8,44.7,30.11,WSW,238,3.0,6.0,96,0.00,,---,0.23,VWS V14.00,2013-01-14 16:49:00,
2013-01-14 11:54:00,45.8,44.7,30.11,WSW,237,3.0,6.0,96,0.00,,---,0.23,VWS V14.00,2013-01-14 16:54:00,
2013-01-14 11:59:00,45.8,44.7,30.10,WSW,237,4.0,6.0,96,0.00,,---,0.23,VWS V14.00,2013-01-14 16:59:00,
2013-01-14 12:04:00,45.8,44.7,30.11,SW,236,4.0,5.0,96,0.00,,---,0.23,VWS V14.00,2013-01-14 17:04:00,
2013-01-14 12:09:00,46.0,44.9,30.11,WSW,237,3.0,5.0,96,0.00,,---,0.23,VWS V14.00,2013-01-14 17:09:00,
2013-01-14 12:14:00,45.9,44.8,30.11,WSW,238,5.0,7.0,96,0.00,,---,0.23,VWS V14.00,2013-01-14 17:14:00,
2013-01-14 12:19:00,45.7,44.6,30.11,WSW,237,5.0,7.0,96,0.00,,---,0.23,VWS V14.00,2013-01-14 17:19:00,
2013-01-14 12:24:00,45.6,44.5,30.11,WSW,237,6.0,7.0,96,0.00,,---,0.23,VWS V14.00,2013-01-14 17:24:00,
2013-01-14 12:29:00,45.6,44.5,30.11,WSW,239,5.0,8.0,96,0.00,,---,0.23,VWS V14.00,2013-01-14 17:29:00,
2013-01-14 12:35:00,45.6,44.5,30.11,WSW,238,4.0,6.0,96,0.00,,---,0.23,VWS V14.00,2013-01-14 17:35:00,
2013-01-14 12:40:00,45.7,44.6,30.11,WSW,238,4.0,6.0,96,0.00,,---,0.23,VWS V14.00,2013-01-14 17:40:00,
2013-01-14 12:45:00,45.7,44.6,30.11,WSW,238,3.0,6.0,96,0.00,,---,0.23,VWS V14.00,2013-01-14 17:45:00,
2013-01-14 12:50:00,45.8,44.7,30.10,WSW,238,3.0,6.0,96,0.00,,---,0.23,VWS V14.00,2013-01-14 17:50:00,
2013-01-14 12:55:00,45.7,44.6,30.10,WSW,238,4.0,6.0,96,0.00,,---,0.23,VWS V14.00,2013-01-14 17:55:00,
2013-01-14 13:00:00,45.7,44.6,30.10,WSW,238,3.0,6.0,96,0.00,,---,0.23,VWS V14.00,2013-01-14 18:00:00,
2013-01-14 13:05:00,45.7,44.6,30.09,WSW,238,0.0,3.0,96,0.00,,---,0.23,VWS V14.00,2013-01-14 18:05:00,
2013-01-14 13:10:00,45.7,44.6,30.09,WSW,238,0.0,3.0,96,0.00,,---,0.23,VWS V14.00,2013-01-14 18:10:00,
2013-01-14 13:15:00,45.8,44.7,30.08,WSW,238,0.0,3.0,96,0.00,,---,0.23,VWS V14.00,2013-01-14 18:15:00,
2013-01-14 13:20:00,45.9,44.8,30.09,WSW,238,0.0,3.0,96,0.00,,---,0.23,VWS V14.00,2013-01-14 18:20:00,
2013-01-14 13:25:00,46.0,44.9,30.08,WSW,238,1.0,3.0,96,0.00,,---,0.23,VWS V14.00,2013-01-14 18:25:00,
2013-01-14 13:30:00,46.1,45.0,30.08,WSW,238,0.0,3.0,96,0.00,,---,0.23,VWS V14.00,2013-01-14 18:30:00,
2013-01-14 13:35:00,46.3,45.2,30.08,WSW,238,0.0,1.0,96,0.00,,---,0.23,VWS V14.00,2013-01-14 18:35:00,
2013-01-14 13:40:00,46.3,45.2,30.08,WSW,238,1.0,2.0,96,0.01,,---,0.24,VWS V14.00,2013-01-14 18:40:00,
2013-01-14 13:45:00,46.3,45.2,30.08,WSW,238,1.0,2.0,96,0.01,,---,0.24,VWS V14.00,2013-01-14 18:45:00,
2013-01-14 13:51:00,46.6,45.5,30.09,WSW,238,3.0,5.0,96,0.02,,---,0.25,VWS V14.00,2013-01-14 18:51:00,
2013-01-14 13:56:00,46.7,45.6,30.09,WSW,238,3.0,6.0,96,0.02,,---,0.25,VWS V14.00,2013-01-14 18:56:00,
2013-01-14 14:01:00,46.7,45.6,30.09,WSW,238,2.0,6.0,96,0.02,,---,0.25,VWS V14.00,2013-01-14 19:01:00,
2013-01-14 14:06:00,46.7,45.6,30.08,WSW,238,1.0,5.0,96,0.02,,---,0.25,VWS V14.00,2013-01-14 19:06:00,
2013-01-14 14:11:00,46.5,45.4,30.06,WSW,238,1.0,5.0,96,0.02,,---,0.25,VWS V14.00,2013-01-14 19:11:00,
2013-01-14 14:16:00,46.4,45.0,30.07,WSW,238,0.0,5.0,95,0.02,,---,0.25,VWS V14.00,2013-01-14 19:16:00,
2013-01-14 14:21:00,46.4,45.0,30.07,WSW,238,0.0,5.0,95,0.02,,---,0.25,VWS V14.00,2013-01-14 19:21:00,
2013-01-14 14:26:00,46.5,45.4,30.08,WSW,238,1.0,5.0,96,0.02,,---,0.25,VWS V14.00,2013-01-14 19:26:00,
2013-01-14 14:31:00,46.7,45.6,30.09,WSW,238,3.0,3.0,96,0.02,,---,0.25,VWS V14.00,2013-01-14 19:31:00,
2013-01-14 14:36:00,46.8,45.7,30.08,WSW,238,0.0,5.0,96,0.02,,---,0.25,VWS V14.00,2013-01-14 19:36:00,
2013-01-14 14:41:00,46.8,45.7,30.08,WSW,238,1.0,5.0,96,0.02,,---,0.25,VWS V14.00,2013-01-14 19:41:00,
2013-01-14 14:46:00,46.9,45.8,30.07,WSW,238,2.0,5.0,96,0.02,,---,0.25,VWS V14.00,2013-01-14 19:46:00,
2013-01-14 14:51:00,46.9,45.8,30.06,WSW,238,0.0,5.0,96,0.02,,---,0.25,VWS V14.00,2013-01-14 19:51:00,
2013-01-14 14:56:00,47.0,45.9,30.07,WSW,238,0.0,5.0,96,0.02,,---,0.25,VWS V14.00,2013-01-14 19:56:00,
2013-01-14 15:01:00,47.2,46.1,30.05,WSW,238,0.0,1.0,96,0.00,,---,0.25,VWS V14.00,2013-01-14 20:01:00,
2013-01-14 15:06:00,47.6,46.5,30.07,WSW,238,3.0,4.0,96,0.00,,---,0.25,VWS V14.00,2013-01-14 20:06:00,
2013-01-14 15:12:00,47.7,46.6,30.08,WSW,238,2.0,5.0,96,0.00,,---,0.25,VWS V14.00,2013-01-14 20:12:00,
2013-01-14 15:17:00,47.6,46.5,30.09,WSW,238,2.0,5.0,96,0.00,,---,0.25,VWS V14.00,2013-01-14 20:17:00,
2013-01-14 15:22:00,47.4,46.3,30.09,WSW,238,2.0,5.0,96,0.00,,---,0.25,VWS V14.00,2013-01-14 20:22:00,
2013-01-14 15:27:00,47.4,46.3,30.09,WSW,238,3.0,5.0,96,0.00,,---,0.25,VWS V14.00,2013-01-14 20:27:00,
2013-01-14 15:32:00,47.3,46.2,30.08,WSW,238,2.0,3.0,96,0.00,,---,0.25,VWS V14.00,2013-01-14 20:32:00,
2013-01-14 15:37:00,47.2,46.1,30.09,WSW,238,0.0,3.0,96,0.00,,---,0.25,VWS V14.00,2013-01-14 20:37:00,
2013-01-14 15:42:00,47.3,46.2,30.10,WSW,238,2.0,4.0,96,0.00,,---,0.25,VWS V14.00,2013-01-14 20:42:00,
2013-01-14 15:47:00,47.2,46.1,30.10,WSW,238,1.0,4.0,96,0.00,,---,0.25,VWS V14.00,2013-01-14 20:47:00,
2013-01-14 15:52:00,47.2,46.1,30.10,WSW,238,2.0,4.0,96,0.00,,---,0.25,VWS V14.00,2013-01-14 20:52:00,
2013-01-14 15:57:00,47.2,46.1,30.10,WSW,238,1.0,4.0,96,0.00,,---,0.25,VWS V14.00,2013-01-14 20:57:00,
2013-01-14 16:02:00,47.3,46.2,30.11,WSW,238,0.0,0.0,96,0.00,,---,0.25,VWS V14.00,2013-01-14 21:02:00,
2013-01-14 16:07:00,47.2,46.1,30.10,WSW,237,3.0,4.0,96,0.00,,---,0.25,VWS V14.00,2013-01-14 21:07:00,
2013-01-14 16:12:00,47.2,46.1,30.11,WSW,237,1.0,4.0,96,0.00,,---,0.25,VWS V14.00,2013-01-14 21:12:00,
2013-01-14 16:17:00,47.1,46.0,30.10,WSW,237,0.0,4.0,96,0.00,,---,0.25,VWS V14.00,2013-01-14 21:17:00,
2013-01-14 16:22:00,46.9,45.5,30.11,WSW,237,2.0,4.0,95,0.00,,---,0.25,VWS V14.00,2013-01-14 21:22:00,
2013-01-14 16:28:00,46.9,45.5,30.11,WSW,237,0.0,4.0,95,0.00,,---,0.25,VWS V14.00,2013-01-14 21:28:00,
2013-01-14 16:33:00,46.8,45.5,30.11,WSW,237,1.0,3.0,95,0.00,,---,0.25,VWS V14.00,2013-01-14 21:33:00,
2013-01-14 16:38:00,46.9,45.5,30.13,WSW,237,1.0,4.0,95,0.00,,---,0.25,VWS V14.00,2013-01-14 21:38:00,
2013-01-14 16:43:00,46.9,45.8,30.13,WSW,237,2.0,4.0,96,0.00,,---,0.25,VWS V14.00,2013-01-14 21:43:00,
2013-01-14 16:48:00,46.9,45.5,30.13,WSW,237,3.0,5.0,95,0.00,,---,0.25,VWS V14.00,2013-01-14 21:48:00,
2013-01-14 16:53:00,46.8,45.7,30.13,WSW,237,3.0,5.0,96,0.00,,---,0.25,VWS V14.00,2013-01-14 21:53:00,
2013-01-14 16:58:00,46.8,45.7,30.13,WSW,237,2.0,5.0,96,0.00,,---,0.25,VWS V14.00,2013-01-14 21:58:00,
2013-01-14 17:03:00,46.8,45.7,30.12,WSW,237,0.0,0.0,96,0.00,,---,0.25,VWS V14.00,2013-01-14 22:03:00,
2013-01-14 17:08:00,46.7,45.6,30.12,WSW,237,0.0,2.0,96,0.00,,---,0.25,VWS V14.00,2013-01-14 22:08:00,
2013-01-14 17:13:00,46.7,45.6,30.11,WSW,237,0.0,2.0,96,0.00,,---,0.25,VWS V14.00,2013-01-14 22:13:00,
2013-01-14 17:18:00,46.7,45.6,30.12,WSW,237,0.0,2.0,96,0.00,,---,0.25,VWS V14.00,2013-01-14 22:18:00,
2013-01-14 17:23:00,46.7,45.6,30.13,WSW,237,3.0,3.0,96,0.00,,---,0.25,VWS V14.00,2013-01-14 22:23:00,
2013-01-14 17:28:00,46.7,45.6,30.14,WSW,237,3.0,5.0,96,0.00,,---,0.25,VWS V14.00,2013-01-14 22:28:00,
2013-01-14 17:33:00,46.6,45.5,30.14,WSW,237,1.0,3.0,96,0.00,,---,0.25,VWS V14.00,2013-01-14 22:33:00,
2013-01-14 17:38:00,46.6,45.5,30.15,WSW,237,2.0,3.0,96,0.00,,---,0.25,VWS V14.00,2013-01-14 22:38:00,
2013-01-14 17:43:00,46.6,45.5,30.14,WSW,237,0.0,3.0,96,0.00,,---,0.25,VWS V14.00,2013-01-14 22:43:00,
2013-01-14 17:48:00,46.5,45.4,30.14,WSW,237,1.0,3.0,96,0.00,,---,0.25,VWS V14.00,2013-01-14 22:48:00,
2013-01-14 17:53:00,46.5,45.4,30.14,WSW,237,0.0,3.0,96,0.01,,---,0.26,VWS V14.00,2013-01-14 22:53:00,
2013-01-14 17:58:00,46.5,45.4,30.14,WSW,237,0.0,3.0,96,0.01,,---,0.26,VWS V14.00,2013-01-14 22:58:00,
2013-01-14 18:04:00,46.5,45.4,30.15,WSW,237,0.0,0.0,96,0.01,,---,0.26,VWS V14.00,2013-01-14 23:04:00,
2013-01-14 18:09:00,46.4,45.3,30.15,WSW,237,2.0,2.0,96,0.02,,---,0.27,VWS V14.00,2013-01-14 23:09:00,
2013-01-14 18:14:00,46.4,45.3,30.15,WSW,237,0.0,2.0,96,0.02,,---,0.27,VWS V14.00,2013-01-14 23:14:00,
2013-01-14 18:19:00,46.4,45.3,30.15,WSW,237,0.0,2.0,96,0.02,,---,0.27,VWS V14.00,2013-01-14 23:19:00,
2013-01-14 18:24:00,46.4,45.3,30.16,WSW,237,2.0,3.0,96,0.03,,---,0.28,VWS V14.00,2013-01-14 23:24:00,
2013-01-14 18:29:00,46.3,45.2,30.17,WSW,237,2.0,3.0,96,0.04,,---,0.29,VWS V14.00,2013-01-14 23:29:00,
2013-01-14 18:34:00,46.3,45.2,30.17,WSW,237,2.0,3.0,96,0.04,,---,0.29,VWS V14.00,2013-01-14 23:34:00,
2013-01-14 18:39:00,46.2,45.1,30.17,WSW,237,1.0,3.0,96,0.05,,---,0.30,VWS V14.00,2013-01-14 23:39:00,
2013-01-14 18:44:00,46.2,45.1,30.17,WSW,237,0.0,3.0,96,0.06,,---,0.31,VWS V14.00,2013-01-14 23:44:00,
2013-01-14 18:49:00,46.1,45.0,30.17,WSW,237,0.0,3.0,96,0.06,,---,0.31,VWS V14.00,2013-01-14 23:49:00,
2013-01-14 18:54:00,46.1,45.0,30.16,WSW,237,0.0,3.0,96,0.06,,---,0.31,VWS V14.00,2013-01-14 23:54:00,
2013-01-14 19:00:00,46.1,45.0,30.17,WSW,237,2.0,3.0,96,0.07,,---,0.32,VWS V14.00,2013-01-15 00:00:00,
2013-01-14 19:05:00,46.0,44.9,30.16,WSW,237,0.0,3.0,96,0.07,,---,0.33,VWS V14.00,2013-01-15 00:05:00,
2013-01-14 19:10:00,45.9,44.8,30.16,WSW,237,0.0,3.0,96,0.07,,---,0.33,VWS V14.00,2013-01-15 00:10:00,
2013-01-14 19:15:00,45.9,44.8,30.16,WSW,237,0.0,3.0,96,0.07,,---,0.33,VWS V14.00,2013-01-15 00:15:00,
2013-01-14 19:20:00,45.9,45.1,30.17,WSW,237,2.0,5.0,97,0.08,,---,0.34,VWS V14.00,2013-01-15 00:20:00,
2013-01-14 19:25:00,45.8,45.0,30.17,WSW,238,5.0,6.0,97,0.09,,---,0.35,VWS V14.00,2013-01-15 00:25:00,
2013-01-14 19:30:00,45.7,44.6,30.16,WSW,238,2.0,6.0,96,0.10,,---,0.36,VWS V14.00,2013-01-15 00:30:00,
2013-01-14 19:35:00,45.6,44.8,30.15,WSW,238,0.0,1.0,97,0.08,,---,0.37,VWS V14.00,2013-01-15 00:35:00,
2013-01-14 19:40:00,45.6,44.8,30.16,WSW,238,0.0,1.0,97,0.09,,---,0.38,VWS V14.00,2013-01-15 00:40:00,
2013-01-14 19:45:00,45.6,44.8,30.15,WSW,238,0.0,1.0,97,0.09,,---,0.38,VWS V14.00,2013-01-15 00:45:00,
2013-01-14 19:50:00,45.6,44.8,30.15,WSW,238,0.0,1.0,97,0.10,,---,0.39,VWS V14.00,2013-01-15 00:50:00,
2013-01-14 19:55:00,45.6,44.8,30.16,WSW,238,2.0,3.0,97,0.10,,---,0.39,VWS V14.00,2013-01-15 00:55:00,
2013-01-14 20:00:00,45.5,44.7,30.17,WSW,238,3.0,3.0,97,0.10,,---,0.39,VWS V14.00,2013-01-15 01:00:00,
2013-01-14 20:05:00,45.5,44.7,30.18,WSW,238,1.0,4.0,97,0.07,,---,0.39,VWS V14.00,2013-01-15 01:05:00,
2013-01-14 20:11:00,45.5,44.7,30.17,WSW,238,3.0,4.0,97,0.07,,---,0.39,VWS V14.00,2013-01-15 01:11:00,
2013-01-14 20:16:00,45.1,44.3,30.17,WSW,240,1.0,6.0,97,0.08,,---,0.40,VWS V14.00,2013-01-15 01:16:00,
2013-01-14 20:21:00,45.0,44.2,30.17,WSW,240,2.0,6.0,97,0.08,,---,0.40,VWS V14.00,2013-01-15 01:21:00,
2013-01-14 20:26:00,44.9,44.1,30.17,WSW,240,3.0,6.0,97,0.09,,---,0.41,VWS V14.00,2013-01-15 01:26:00,
2013-01-14 20:31:00,44.7,43.9,30.18,WSW,240,1.0,6.0,97,0.09,,---,0.41,VWS V14.00,2013-01-15 01:31:00,
2013-01-14 20:36:00,44.6,43.8,30.17,WSW,240,2.0,4.0,97,0.06,,---,0.42,VWS V14.00,2013-01-15 01:36:00,
2013-01-14 20:41:00,44.5,43.7,30.18,WSW,240,4.0,5.0,97,0.06,,---,0.42,VWS V14.00,2013-01-15 01:41:00,
2013-01-14 20:46:00,44.3,43.5,30.18,WSW,240,1.0,5.0,97,0.07,,---,0.43,VWS V14.00,2013-01-15 01:46:00,
2013-01-14 20:51:00,44.2,43.4,30.17,WSW,240,3.0,5.0,97,0.07,,---,0.43,VWS V14.00,2013-01-15 01:51:00,
2013-01-14 20:56:00,43.9,42.8,30.18,WSW,241,3.0,5.0,96,0.08,,---,0.44,VWS V14.00,2013-01-15 01:56:00,
2013-01-14 21:01:00,43.7,42.6,30.18,WSW,242,4.0,5.0,96,0.05,,---,0.44,VWS V14.00,2013-01-15 02:01:00,
2013-01-14 21:06:00,43.4,42.3,30.19,WSW,252,5.0,8.0,96,0.05,,---,0.44,VWS V14.00,2013-01-15 02:06:00,
2013-01-14 21:11:00,43.0,41.9,30.19,WSW,249,6.0,8.0,96,0.05,,---,0.44,VWS V14.00,2013-01-15 02:11:00,
2013-01-14 21:16:00,42.6,41.5,30.19,WSW,247,3.0,8.0,96,0.06,,---,0.45,VWS V14.00,2013-01-15 02:16:00,
2013-01-14 21:21:00,42.3,41.2,30.20,WSW,247,2.0,8.0,96,0.06,,---,0.45,VWS V14.00,2013-01-15 02:21:00,
2013-01-14 21:26:00,41.9,40.8,30.20,WSW,244,5.0,8.0,96,0.07,,---,0.46,VWS V14.00,2013-01-15 02:26:00,
2013-01-14 21:32:00,41.5,40.5,30.20,WSW,240,6.0,7.0,96,0.06,,---,0.47,VWS V14.00,2013-01-15 02:32:00,
2013-01-14 21:37:00,41.2,40.2,30.20,WSW,237,7.0,8.0,96,0.06,,---,0.47,VWS V14.00,2013-01-15 02:37:00,
2013-01-14 21:42:00,40.9,39.8,30.21,SW,235,5.0,8.0,96,0.08,,---,0.49,VWS V14.00,2013-01-15 02:42:00,
2013-01-14 21:47:00,40.5,39.5,30.21,SW,234,7.0,8.0,96,0.09,,---,0.50,VWS V14.00,2013-01-15 02:47:00,
2013-01-14 21:52:00,40.4,39.3,30.20,SW,233,4.0,8.0,96,0.10,,---,0.51,VWS V14.00,2013-01-15 02:52:00,
2013-01-14 21:57:00,40.2,39.2,30.20,SW,233,2.0,8.0,96,0.10,,---,0.51,VWS V14.00,2013-01-15 02:57:00,
2013-01-14 22:02:00,40.1,39.0,30.20,SW,233,1.0,2.0,96,0.08,,---,0.52,VWS V14.00,2013-01-15 03:02:00,
2013-01-14 22:07:00,40.1,39.3,30.21,SW,233,4.0,5.0,97,0.09,,---,0.53,VWS V14.00,2013-01-15 03:07:00,
2013-01-14 22:12:00,40.0,39.2,30.21,SW,233,4.0,5.0,97,0.09,,---,0.53,VWS V14.00,2013-01-15 03:12:00,
2013-01-14 22:17:00,40.0,39.2,30.21,SW,233,3.0,5.0,97,0.09,,---,0.53,VWS V14.00,2013-01-15 03:17:00,
2013-01-14 22:22:00,40.0,39.2,30.22,SW,233,2.0,5.0,97,0.11,,---,0.55,VWS V14.00,2013-01-15 03:22:00,
2013-01-14 22:27:00,39.9,39.1,30.22,SW,233,3.0,5.0,97,0.13,,---,0.57,VWS V14.00,2013-01-15 03:27:00,
2013-01-14 22:32:00,39.7,38.9,30.22,SW,233,2.0,2.0,97,0.12,,---,0.59,VWS V14.00,2013-01-15 03:32:00,
2013-01-14 22:37:00,39.6,38.8,30.22,SW,233,2.0,4.0,97,0.13,,---,0.60,VWS V14.00,2013-01-15 03:37:00,
2013-01-14 22:42:00,39.4,38.6,30.22,SW,233,0.0,4.0,97,0.16,,---,0.63,VWS V14.00,2013-01-15 03:42:00,
2013-01-14 22:47:00,39.3,38.5,30.22,SW,233,0.0,4.0,97,0.17,,---,0.64,VWS V14.00,2013-01-15 03:47:00,
2013-01-14 22:52:00,39.3,38.5,30.23,SW,233,2.0,4.0,97,0.19,,---,0.66,VWS V14.00,2013-01-15 03:52:00,
2013-01-14 22:57:00,39.2,38.4,30.23,SW,233,2.0,4.0,97,0.21,,---,0.68,VWS V14.00,2013-01-15 03:57:00,
2013-01-14 23:02:00,39.1,38.3,30.23,SW,233,1.0,1.0,97,0.17,,---,0.69,VWS V14.00,2013-01-15 04:02:00,
2013-01-14 23:08:00,39.1,38.3,30.23,SW,233,1.0,2.0,97,0.19,,---,0.71,VWS V14.00,2013-01-15 04:08:00,
2013-01-14 23:13:00,39.2,38.4,30.23,SW,233,1.0,2.0,97,0.20,,---,0.72,VWS V14.00,2013-01-15 04:13:00,
2013-01-14 23:18:00,39.2,38.4,30.22,SW,233,0.0,2.0,97,0.21,,---,0.73,VWS V14.00,2013-01-15 04:18:00,
2013-01-14 23:23:00,39.1,38.3,30.22,SW,233,0.0,2.0,97,0.23,,---,0.75,VWS V14.00,2013-01-15 04:23:00,
2013-01-14 23:28:00,39.1,38.3,30.22,SW,233,2.0,2.0,97,0.24,,---,0.76,VWS V14.00,2013-01-15 04:28:00,
2013-01-14 23:33:00,39.1,38.3,30.23,SW,233,1.0,3.0,97,0.19,,---,0.77,VWS V14.00,2013-01-15 04:33:00,
2013-01-14 23:38:00,38.9,38.1,30.23,SW,233,1.0,3.0,97,0.21,,---,0.79,VWS V14.00,2013-01-15 04:38:00,
2013-01-14 23:43:00,38.8,38.0,30.23,SW,233,2.0,3.0,97,0.22,,---,0.80,VWS V14.00,2013-01-15 04:43:00,
2013-01-14 23:48:00,38.7,37.9,30.21,SW,233,0.0,3.0,97,0.23,,---,0.81,VWS V14.00,2013-01-15 04:48:00,
2013-01-14 23:53:00,38.7,37.9,30.21,SW,233,0.0,3.0,97,0.25,,---,0.83,VWS V14.00,2013-01-15 04:53:00,
2013-01-14 23:58:00,38.8,38.0,30.21,SW,233,0.0,3.0,97,0.25,,---,0.83,VWS V14.00,2013-01-15 04:58:00,